This demonstration page uses our WeatherBlox Daily Observations layout. Learn more.

Left ArrowRight Arrow

39.12711, -84.51439

Hourly Observations for March 20, 2021

Temp ( °F °C ) Dew Point ( °F °C ) Humidity (%) Winds ( mph kmh ) Pressure ( in mb ) Visibility ( mi km ) Precip ( " mm )
12:53 am 00:53 Clear 34 1.1 23 -5 64 64 NE 7 11 30.5 1033 10 16.0934 0 0
1:53 am 01:53 Clear 31 -0.6 23 -5 72 72 NE 8 13 30.5 1033 10 16.0934 0 0
3:53 am 03:53 Clear 29 -1.7 22 -5.6 75 75 NE 6 9 30.52 1033 10 16.0934 0 0
4:53 am 04:53 Clear 30 -1.1 23 -5 75 75 NE 5 7 30.52 1033 10 16.0934 0 0
5:53 am 05:53 Clear 28 -2.2 23 -5 81 81 ENE 3 6 30.53 1034 10 16.0934 0 0
6:53 am 06:53 Clear 28 -2.2 23 -5 81 81 ENE 3 6 30.55 1034 10 16.0934 0 0
7:53 am 07:53 Sunny 27 -2.8 23 -5 85 85 ENE 5 7 30.56 1035 10 16.0934 0 0
8:53 am 08:53 Sunny 32 0 25 -3.9 75 75 NE 3 6 30.58 1035 10 16.0934 0 0
9:53 am 09:53 Sunny 37 2.8 24 -4.4 59 59 NE 7 11 30.57 1035 10 16.0934 0 0
10:53 am 10:53 Sunny 44 6.7 25 -3.9 47 47 NNE 7 11 30.57 1035 10 16.0934 0 0
11:53 am 11:53 Sunny 50 10 24 -4.4 36 36 NNE 7 11 30.55 1035 10 16.0934 0 0
12:53 pm 12:53 Sunny 55 12.8 24 -4.4 30 30 SW 7 11 30.53 1034 10 16.0934 0 0
1:53 pm 13:53 Sunny 57 13.9 20 -6.7 24 24 Calm 30.52 1033 10 16.0934 0 0
2:53 pm 14:53 Sunny 59 15 22 -5.6 24 24 NNE 10 17 30.48 1032 10 16.0934 0 0
3:53 pm 15:53 Sunny 60 15.6 20 -6.7 21 21 NE 7 11 30.45 1031 10 16.0934 0 0
4:53 pm 16:53 Sunny 61 16.1 22 -5.6 22 22 NE 5 7 30.44 1031 10 16.0934 0 0
5:53 pm 17:53 Sunny 60 15.6 23 -5 24 24 NE 7 11 30.43 1031 10 16.0934 0 0
6:53 pm 18:53 Sunny 59 15 22 -5.6 24 24 NE 9 15 30.43 1031 10 16.0934 0 0
7:53 pm 19:53 Clear 53 11.7 22 -5.6 30 30 NE 7 11 30.43 1031 10 16.0934 0 0
8:53 pm 20:53 Clear 47 8.3 28 -2.2 48 48 NNE 3 6 30.43 1031 10 16.0934 0 0
9:53 pm 21:53 Clear 43 6.1 32 0 65 65 Calm 30.45 1031 10 16.0934 0 0
10:53 pm 22:53 Clear 40 4.4 31 -0.6 70 70 NE 3 6 30.44 1031 10 16.0934 0 0
11:53 pm 23:53 Clear 36 2.2 30 -1.1 79 79 NE 3 6 30.44 1031 10 16.0934 0 0

Powered by AerisWeather